START_TIME,STEP,MOV.,H8,t_acc.,H43,t_acc.,M25,t_acc.,H9,t_acc.
1979-08-02 23:07:16.330 ,0,0,0.,12.0,0.,12.0,0.,12.0,0.,12.0
1979-08-02 23:07:28.330 ,0,0,0.,12.0,0.,12.0,0.,12.0,0.,12.0
1979-08-02 23:07:40.330 ,0,0,0.,12.0,0.,12.0,0.,12.0,0.,12.0
1979-08-02 23:07:52.330 ,0,0,0.,12.0,0.,12.0,0.,12.0,0.,12.0
1979-08-02 23:08:04.330 ,4,0,0.,12.0,0.,12.0,0.,12.0,0.,12.0
1979-08-02 23:08:16.330 ,4,0,0.,12.0,0.,12.0,0.,12.0,0.,12.0
1979-08-02 23:08:28.330 ,4,0,0.,12.0,0.,12.0,0.,12.0,0.,12.0
1979-08-02 23:08:40.330 ,4,0,0.,12.0,0.,12.0,0.,12.0,0.,12.0
1979-08-02 23:08:52.330 ,3,0,0.,12.0,0.,12.0,0.,12.0,0.,12.0
1979-08-02 23:09:04.330 ,3,0,0.,12.0,0.,12.0,0.,12.0,0.,12.0
1979-08-02 23:09:16.330 ,3,0,0.,12.0,0.,12.0,0.,12.0,0.,12.0
1979-08-02 23:09:28.330 ,3,0,0.,12.0,0.,12.0,0.,12.0,0.,12.0
1979-08-02 23:09:40.330 ,2,0,0.,12.0,0.,12.0,0.,12.0,0.,12.0
1979-08-02 23:09:52.330 ,2,0,0.,12.0,0.,12.0,0.,12.0,0.,12.0
1979-08-02 23:10:04.330 ,2,0,0.,12.0,0.,12.0,0.,12.0,0.,12.0
1979-08-02 23:10:16.330 ,2,0,0.,12.0,0.,12.0,0.,12.0,0.,12.0
1979-08-02 23:10:28.330 ,1,0,0.,12.0,0.,12.0,0.,12.0,0.,12.0
1979-08-02 23:10:40.330 ,1,0,0.,12.0,0.,12.0,0.,12.0,0.,12.0
1979-08-02 23:10:52.330 ,1,0,0.,12.0,0.,12.0,0.,12.0,0.,12.0
1979-08-02 23:11:04.330 ,1,0,0.,12.0,0.,12.0,0.,12.0,0.,12.0
1979-08-02 23:11:16.330 ,0,0,0.,12.0,0.,12.0,0.,12.0,0.,12.0
1979-08-02 23:11:28.330 ,0,0,0.,12.0,0.,12.0,0.,12.0,0.,12.0
1979-08-02 23:11:40.330 ,0,0,0.,12.0,0.,12.0,0.,12.0,0.,12.0
1979-08-02 23:11:52.330 ,0,0,0.,12.0,0.,12.0,0.,12.0,0.,12.0
1979-08-02 23:12:04.330 ,0,0,0.,12.0,0.,12.0,0.,12.0,0.,12.0
1979-08-02 23:12:16.330 ,0,0,0.,12.0,0.,12.0,0.,12.0,0.,12.0
1979-08-02 23:12:28.330 ,0,0,0.,12.0,0.,12.0,0.,12.0,0.,12.0
1979-08-02 23:12:40.330 ,0,0,0.,12.0,0.,12.0,0.,12.0,0.,12.0
1979-08-02 23:12:52.330 ,1,0,0.,12.0,0.,12.0,0.,12.0,0.,12.0
1979-08-02 23:13:04.330 ,1,0,0.,12.0,0.,12.0,0.,12.0,0.,12.0
1979-08-02 23:13:16.330 ,1,0,0.,12.0,0.,12.0,0.,12.0,0.,12.0
1979-08-02 23:13:28.330 ,1,0,0.,12.0,0.,12.0,0.,12.0,0.,12.0
1979-08-02 23:13:40.330 ,2,0,0.,12.0,0.,12.0,0.,12.0,0.,12.0
1979-08-02 23:13:52.330 ,2,0,0.,12.0,0.,12.0,0.,12.0,0.,12.0
1979-08-02 23:14:04.330 ,2,0,0.,12.0,0.,12.0,0.,12.0,0.,12.0
1979-08-02 23:14:16.330 ,2,0,0.,12.0,0.,12.0,0.,12.0,0.,12.0
1979-08-02 23:14:28.330 ,3,0,0.,12.0,0.,12.0,0.,12.0,0.,12.0
1979-08-02 23:14:40.330 ,3,0,0.,12.0,0.,12.0,0.,12.0,0.,12.0
1979-08-02 23:14:52.330 ,3,0,0.,12.0,0.,12.0,0.,12.0,0.,12.0
1979-08-02 23:15:04.330 ,3,0,0.,12.0,0.,12.0,0.,12.0,0.,12.0
1979-08-02 23:15:16.330 ,4,0,0.,12.0,0.,12.0,0.,12.0,0.,12.0
1979-08-02 23:15:28.330 ,4,0,0.,12.0,0.,12.0,0.,12.0,0.,12.0
1979-08-02 23:15:40.330 ,4,0,0.,12.0,0.,12.0,0.,12.0,0.,12.0
1979-08-02 23:15:52.330 ,4,0,0.,12.0,0.,12.0,0.,12.0,0.,12.0
1979-08-02 23:16:04.330 ,5,0,0.,12.0,0.,12.0,0.,12.0,0.,12.0
1979-08-02 23:16:16.330 ,5,0,0.,12.0,0.,12.0,0.,12.0,0.,12.0
1979-08-02 23:16:28.330 ,5,0,0.,12.0,0.,12.0,0.,12.0,0.,12.0
1979-08-02 23:16:40.330 ,5,0,0.,12.0,0.,12.0,0.,12.0,0.,12.0
1979-08-02 23:16:52.330 ,6,0,0.,12.0,0.,12.0,0.,12.0,0.,12.0
1979-08-02 23:17:04.330 ,6,0,0.,12.0,0.,12.0,0.,12.0,0.,12.0
1979-08-02 23:17:16.330 ,6,0,0.,12.0,0.,12.0,0.,12.0,0.,12.0
1979-08-02 23:17:28.330 ,6,0,0.,12.0,0.,12.0,0.,12.0,0.,12.0
1979-08-02 23:17:40.330 ,7,0,0.,12.0,0.,12.0,0.,12.0,0.,12.0
1979-08-02 23:17:52.330 ,7,0,0.,12.0,0.,12.0,0.,12.0,0.,12.0
1979-08-02 23:18:04.330 ,7,0,0.,12.0,0.,12.0,0.,12.0,0.,12.0
1979-08-02 23:18:16.330 ,7,0,0.,12.0,0.,12.0,0.,12.0,0.,12.0
1979-08-02 23:18:28.330 ,7,0,0.,12.0,0.,12.0,0.,12.0,0.,12.0
1979-08-02 23:18:40.330 ,7,0,0.,12.0,0.,12.0,0.,12.0,0.,12.0
1979-08-02 23:18:52.330 ,7,0,0.,12.0,0.,12.0,0.,12.0,0.,12.0
1979-08-02 23:19:04.330 ,7,0,0.,12.0,0.,12.0,0.,12.0,0.,12.0
1979-08-02 23:19:16.330 ,6,0,0.,12.0,0.,12.0,0.,12.0,0.,12.0
1979-08-02 23:19:28.330 ,6,0,0.,12.0,0.,12.0,0.,12.0,0.,12.0
1979-08-02 23:19:40.330 ,6,0,0.,12.0,0.,12.0,0.,12.0,0.,12.0
1979-08-02 23:19:52.330 ,6,0,0.,12.0,0.,12.0,0.,12.0,0.,12.0
1979-08-02 23:20:04.330 ,5,0,0.,12.0,0.,12.0,0.,12.0,0.,12.0
1979-08-02 23:20:16.330 ,5,0,0.,12.0,0.,12.0,0.,12.0,0.,12.0
1979-08-02 23:20:28.330 ,5,0,0.,12.0,0.,12.0,0.,12.0,0.,12.0
1979-08-02 23:20:40.330 ,5,0,0.,12.0,0.,12.0,0.,12.0,0.,12.0
1979-08-02 23:20:52.330 ,4,0,0.,12.0,0.,12.0,0.,12.0,0.,12.0
1979-08-02 23:21:04.330 ,4,0,0.,12.0,0.,12.0,0.,12.0,0.,12.0
1979-08-02 23:21:16.330 ,4,0,0.,12.0,0.,12.0,0.,12.0,0.,12.0
1979-08-02 23:21:28.330 ,4,0,0.,12.0,0.,12.0,0.,12.0,0.,12.0
1979-08-02 23:21:40.330 ,3,0,0.,12.0,0.,12.0,0.,12.0,0.,12.0
1979-08-02 23:21:52.330 ,3,0,0.,12.0,0.,12.0,0.,12.0,0.,12.0
1979-08-02 23:22:04.330 ,3,0,0.,12.0,0.,12.0,0.,12.0,0.,12.0
1979-08-02 23:22:16.330 ,3,0,0.,12.0,0.,12.0,0.,12.0,0.,12.0
1979-08-02 23:22:28.330 ,2,0,0.,12.0,0.,12.0,0.,12.0,0.,12.0
1979-08-02 23:22:40.330 ,2,0,0.,12.0,0.,12.0,0.,12.0,0.,12.0
1979-08-02 23:22:52.330 ,2,0,0.,12.0,0.,12.0,0.,12.0,0.,12.0
1979-08-02 23:23:04.330 ,2,0,0.,12.0,0.,12.0,0.,12.0,0.,12.0
1979-08-02 23:23:16.330 ,1,0,0.,12.0,0.,12.0,0.,12.0,0.,12.0
1979-08-02 23:23:28.330 ,1,0,0.,12.0,0.,12.0,0.,12.0,0.,12.0
1979-08-02 23:23:40.330 ,1,0,0.,12.0,0.,12.0,0.,12.0,0.,12.0
1979-08-02 23:23:52.330 ,1,0,0.,12.0,0.,12.0,0.,12.0,0.,12.0
1979-08-02 23:24:04.330 ,0,0,0.,12.0,0.,12.0,0.,12.0,0.,12.0
1979-08-02 23:24:16.330 ,0,0,0.,12.0,0.,12.0,0.,12.0,0.,12.0
1979-08-02 23:24:28.330 ,0,0,0.,12.0,0.,12.0,0.,12.0,0.,12.0
1979-08-02 23:24:40.330 ,0,0,0.,12.0,0.,12.0,0.,12.0,0.,12.0
1979-08-02 23:24:52.330 ,0,0,0.,12.0,0.,12.0,0.,12.0,0.,12.0
1979-08-02 23:25:04.330 ,0,0,0.,12.0,0.,12.0,0.,12.0,0.,12.0
1979-08-02 23:25:16.330 ,0,0,0.,12.0,0.,12.0,0.,12.0,0.,12.0
1979-08-02 23:25:28.330 ,0,0,0.,12.0,0.,12.0,0.,12.0,0.,12.0
1979-08-02 23:25:40.330 ,1,0,0.,12.0,0.,12.0,0.,12.0,0.,12.0
1979-08-02 23:25:52.330 ,1,0,0.,12.0,0.,12.0,0.,12.0,0.,12.0
1979-08-02 23:26:04.330 ,1,0,0.,12.0,0.,12.0,0.,12.0,0.,12.0
1979-08-02 23:26:16.330 ,1,0,0.,12.0,0.,12.0,0.,12.0,0.,12.0
1979-08-02 23:26:28.330 ,2,0,0.,12.0,0.,12.0,0.,12.0,0.,12.0
1979-08-02 23:26:40.330 ,2,0,0.,12.0,0.,12.0,0.,12.0,0.,12.0
1979-08-02 23:26:52.330 ,2,0,0.,12.0,0.,12.0,0.,12.0,0.,12.0
1979-08-02 23:27:04.330 ,2,0,0.,12.0,0.,12.0,0.,12.0,0.,12.0
1979-08-02 23:27:16.330 ,3,0,0.,12.0,0.,12.0,0.,12.0,0.,12.0
1979-08-02 23:27:28.330 ,3,0,0.,12.0,0.,12.0,0.,12.0,0.,12.0
1979-08-02 23:27:40.330 ,3,0,0.,12.0,0.,12.0,0.,12.0,0.,12.0
1979-08-02 23:27:52.330 ,3,0,0.,12.0,0.,12.0,0.,12.0,0.,12.0
1979-08-02 23:28:04.330 ,4,0,0.,12.0,0.,12.0,0.,12.0,0.,12.0
1979-08-02 23:28:16.330 ,4,0,0.,12.0,0.,12.0,0.,12.0,0.,12.0
1979-08-02 23:28:28.330 ,4,0,0.,12.0,0.,12.0,0.,12.0,0.,12.0
1979-08-02 23:28:40.330 ,4,0,0.,12.0,0.,12.0,0.,12.0,0.,12.0
1979-08-02 23:28:52.330 ,5,0,0.,12.0,0.,12.0,0.,12.0,0.,12.0
1979-08-02 23:29:04.330 ,5,0,0.,12.0,0.,12.0,0.,12.0,0.,12.0
1979-08-02 23:29:16.330 ,5,0,0.,12.0,0.,12.0,0.,12.0,0.,12.0
1979-08-02 23:29:28.330 ,5,0,0.,12.0,0.,12.0,0.,12.0,0.,12.0
1979-08-02 23:29:40.330 ,6,0,0.,12.0,0.,12.0,0.,12.0,0.,12.0
1979-08-02 23:29:52.330 ,6,0,0.,12.0,0.,12.0,0.,12.0,0.,12.0
1979-08-02 23:30:04.330 ,6,0,0.,12.0,0.,12.0,0.,12.0,0.,12.0
1979-08-02 23:30:16.330 ,6,0,0.,12.0,0.,12.0,0.,12.0,0.,12.0
1979-08-02 23:30:28.330 ,7,0,0.,12.0,0.,12.0,0.,12.0,0.,12.0
1979-08-02 23:30:40.330 ,7,0,0.,12.0,0.,12.0,0.,12.0,0.,12.0
1979-08-02 23:30:52.330 ,7,0,0.,12.0,0.,12.0,0.,12.0,0.,12.0
1979-08-02 23:31:04.330 ,7,0,0.,12.0,0.,12.0,0.,12.0,0.,12.0
1979-08-02 23:31:16.330 ,3,1,0.,12.0,0.,12.0,0.,12.0,0.,12.0
1979-08-02 23:31:28.330 ,3,1,0.,12.0,0.,12.0,0.,12.0,0.,12.0
1979-08-02 23:31:40.330 ,0,1,0.,12.0,0.,12.0,0.,12.0,0.,12.0
1979-08-02 23:31:52.330 ,0,1,0.,12.0,0.,12.0,0.,12.0,0.,12.0
1979-08-02 23:32:04.330 ,4,1,0.,12.0,0.,12.0,0.,12.0,0.,12.0
1979-08-02 23:32:16.330 ,4,1,0.,12.0,0.,12.0,0.,12.0,0.,12.0
1979-08-02 23:32:28.330 ,7,1,0.,12.0,0.,12.0,0.,12.0,0.,12.0
1979-08-02 23:32:40.330 ,7,1,0.,12.0,0.,12.0,0.,12.0,0.,12.0
1979-08-02 23:32:52.330 ,3,1,0.,12.0,0.,12.0,0.,12.0,0.,12.0
1979-08-02 23:33:04.330 ,3,1,0.,12.0,0.,12.0,0.,12.0,0.,12.0
1979-08-02 23:33:16.330 ,0,1,0.,12.0,0.,12.0,0.,12.0,0.,12.0
1979-08-02 23:33:28.330 ,0,1,0.,12.0,0.,12.0,0.,12.0,0.,12.0
1979-08-02 23:33:40.330 ,4,1,0.,12.0,0.,12.0,0.,12.0,0.,12.0
1979-08-02 23:33:52.330 ,4,1,0.,12.0,0.,12.0,0.,12.0,0.,12.0
1979-08-02 23:34:04.330 ,7,1,0.,12.0,0.,12.0,0.,12.0,0.,12.0
1979-08-02 23:34:16.330 ,7,1,0.,12.0,0.,12.0,0.,12.0,0.,12.0
1979-08-02 23:34:28.330 ,3,1,0.,12.0,0.,12.0,0.,12.0,0.,12.0
1979-08-02 23:34:40.330 ,3,1,0.,12.0,0.,12.0,0.,12.0,0.,12.0
1979-08-02 23:34:52.330 ,0,1,0.,12.0,0.,12.0,0.,12.0,0.,12.0
1979-08-02 23:35:04.330 ,0,1,0.,12.0,0.,12.0,0.,12.0,0.,12.0
1979-08-02 23:35:16.320 ,4,1,0.,12.0,0.,12.0,0.,12.0,0.,12.0
1979-08-02 23:35:28.320 ,4,1,0.,12.0,0.,12.0,0.,12.0,0.,12.0
1979-08-02 23:35:40.320 ,7,1,0.,12.0,0.,12.0,0.,12.0,0.,12.0
1979-08-02 23:35:52.320 ,7,1,0.,12.0,0.,12.0,0.,12.0,0.,12.0
1979-08-02 23:36:04.320 ,3,1,0.,12.0,0.,12.0,0.,12.0,0.,12.0
1979-08-02 23:36:16.320 ,3,1,0.,12.0,0.,12.0,0.,12.0,0.,12.0
1979-08-02 23:36:28.320 ,0,1,0.,12.0,0.,12.0,0.,12.0,0.,12.0
1979-08-02 23:36:40.320 ,0,1,0.,12.0,0.,12.0,0.,12.0,0.,12.0
1979-08-02 23:36:52.320 ,4,1,0.,12.0,0.,12.0,0.,12.0,0.,12.0
1979-08-02 23:37:04.320 ,4,1,0.,12.0,0.,12.0,0.,12.0,0.,12.0
1979-08-02 23:37:16.320 ,7,1,0.,12.0,0.,12.0,0.,12.0,0.,12.0
1979-08-02 23:37:28.320 ,7,1,0.,12.0,0.,12.0,0.,12.0,0.,12.0
1979-08-02 23:37:40.320 ,3,1,0.,12.0,0.,12.0,0.,12.0,0.,12.0
1979-08-02 23:37:52.320 ,3,1,0.,12.0,0.,12.0,0.,12.0,0.,12.0
1979-08-02 23:38:04.320 ,0,1,0.,12.0,0.,12.0,0.,12.0,0.,12.0
1979-08-02 23:38:16.320 ,0,1,0.,12.0,0.,12.0,0.,12.0,0.,12.0
1979-08-02 23:38:28.320 ,4,1,0.,12.0,0.,12.0,0.,12.0,0.,12.0
1979-08-02 23:38:40.320 ,4,1,0.,12.0,0.,12.0,0.,12.0,0.,12.0
1979-08-02 23:38:52.320 ,7,1,0.,12.0,0.,12.0,0.,12.0,0.,12.0
1979-08-02 23:39:04.320 ,7,1,0.,12.0,0.,12.0,0.,12.0,0.,12.0
1979-08-02 23:39:16.320 ,3,1,0.,12.0,0.,12.0,0.,12.0,0.,12.0
1979-08-02 23:39:28.320 ,3,1,0.,12.0,0.,12.0,0.,12.0,0.,12.0
1979-08-02 23:39:40.320 ,0,1,0.,12.0,0.,12.0,0.,12.0,0.,12.0
1979-08-02 23:39:52.320 ,0,1,0.,12.0,0.,12.0,0.,12.0,0.,12.0
1979-08-02 23:40:04.320 ,4,1,0.,12.0,0.,12.0,0.,12.0,0.,12.0
1979-08-02 23:40:16.320 ,4,1,0.,12.0,0.,12.0,0.,12.0,0.,12.0
1979-08-02 23:40:28.320 ,7,1,0.,12.0,0.,12.0,0.,12.0,0.,12.0
1979-08-02 23:40:40.320 ,7,1,0.,12.0,0.,12.0,0.,12.0,0.,12.0
1979-08-02 23:40:52.320 ,3,1,0.,12.0,0.,12.0,0.,12.0,0.,12.0
1979-08-02 23:41:04.320 ,3,1,0.,12.0,0.,12.0,0.,12.0,0.,12.0
1979-08-02 23:41:16.320 ,0,1,0.,12.0,0.,12.0,0.,12.0,0.,12.0
1979-08-02 23:41:28.320 ,0,1,0.,12.0,0.,12.0,0.,12.0,0.,12.0
1979-08-02 23:41:40.320 ,0,0,0.,12.0,0.,12.0,0.,12.0,0.,12.0
1979-08-02 23:41:52.320 ,0,0,0.,12.0,0.,12.0,0.,12.0,0.,12.0
1979-08-02 23:42:04.320 ,0,0,0.,12.0,0.,12.0,0.,12.0,0.,12.0
1979-08-02 23:42:16.320 ,0,0,0.,12.0,0.,12.0,0.,12.0,0.,12.0
1979-08-02 23:42:28.320 ,5,0,0.,12.0,0.,12.0,0.,12.0,0.,12.0
1979-08-02 23:42:40.320 ,5,0,0.,12.0,0.,12.0,0.,12.0,0.,12.0
1979-08-02 23:42:52.320 ,5,0,0.,12.0,0.,12.0,0.,12.0,0.,12.0
1979-08-02 23:43:04.320 ,5,0,0.,12.0,0.,12.0,0.,12.0,0.,12.0
1979-08-02 23:43:16.320 ,4,0,0.,12.0,0.,12.0,0.,12.0,0.,12.0
1979-08-02 23:43:28.320 ,4,0,0.,12.0,0.,12.0,0.,12.0,0.,12.0
1979-08-02 23:43:40.320 ,4,0,0.,12.0,0.,12.0,0.,12.0,0.,12.0
1979-08-02 23:43:52.320 ,4,0,0.,12.0,0.,12.0,0.,12.0,0.,12.0
1979-08-02 23:44:04.320 ,3,0,0.,12.0,0.,12.0,0.,12.0,0.,12.0
1979-08-02 23:44:16.320 ,3,0,0.,12.0,0.,12.0,0.,12.0,0.,12.0
1979-08-02 23:44:28.320 ,3,0,0.,12.0,0.,12.0,0.,12.0,0.,12.0
1979-08-02 23:44:40.320 ,3,0,0.,12.0,0.,12.0,0.,12.0,0.,12.0
1979-08-02 23:44:52.320 ,2,0,0.,12.0,0.,12.0,0.,12.0,0.,12.0
1979-08-02 23:45:04.320 ,2,0,0.,12.0,0.,12.0,0.,12.0,0.,12.0
1979-08-02 23:45:16.320 ,2,0,0.,12.0,0.,12.0,0.,12.0,0.,12.0
1979-08-02 23:45:28.320 ,2,0,0.,12.0,0.,12.0,0.,12.0,0.,12.0
1979-08-02 23:45:40.320 ,1,0,0.,12.0,0.,12.0,0.,12.0,0.,12.0
1979-08-02 23:45:52.320 ,1,0,0.,12.0,0.,12.0,0.,12.0,0.,12.0
1979-08-02 23:46:04.320 ,1,0,0.,12.0,0.,12.0,0.,12.0,0.,12.0
1979-08-02 23:46:16.320 ,1,0,0.,12.0,0.,12.0,0.,12.0,0.,12.0
1979-08-02 23:46:28.320 ,0,0,0.,12.0,0.,12.0,0.,12.0,0.,12.0
1979-08-02 23:46:40.320 ,0,0,0.,12.0,0.,12.0,0.,12.0,0.,12.0
1979-08-02 23:46:52.320 ,0,0,0.,12.0,0.,12.0,0.,12.0,0.,12.0
1979-08-02 23:47:04.320 ,0,0,0.,12.0,0.,12.0,0.,12.0,0.,12.0
1979-08-02 23:47:16.320 ,0,0,0.,12.0,0.,12.0,0.,12.0,0.,12.0
1979-08-02 23:47:28.320 ,0,0,0.,12.0,0.,12.0,0.,12.0,0.,12.0
1979-08-02 23:47:40.320 ,0,0,0.,12.0,0.,12.0,0.,12.0,0.,12.0
1979-08-02 23:47:52.320 ,0,0,0.,12.0,0.,12.0,0.,12.0,0.,12.0
1979-08-02 23:48:04.320 ,1,0,0.,12.0,0.,12.0,0.,12.0,0.,12.0
1979-08-02 23:48:16.320 ,1,0,0.,12.0,0.,12.0,0.,12.0,0.,12.0
1979-08-02 23:48:28.320 ,1,0,0.,12.0,0.,12.0,0.,12.0,0.,12.0
1979-08-02 23:48:40.320 ,1,0,0.,12.0,0.,12.0,0.,12.0,0.,12.0
1979-08-02 23:48:52.320 ,2,0,0.,12.0,0.,12.0,0.,12.0,0.,12.0
1979-08-02 23:49:04.320 ,2,0,0.,12.0,0.,12.0,0.,12.0,0.,12.0
1979-08-02 23:49:16.320 ,2,0,0.,12.0,0.,12.0,0.,12.0,0.,12.0
1979-08-02 23:49:28.320 ,2,0,0.,12.0,0.,12.0,0.,12.0,0.,12.0
1979-08-02 23:49:40.320 ,3,0,0.,12.0,0.,12.0,0.,12.0,0.,12.0
1979-08-02 23:49:52.320 ,3,0,0.,12.0,0.,12.0,0.,12.0,0.,12.0
1979-08-02 23:50:04.320 ,3,0,0.,12.0,0.,12.0,0.,12.0,0.,12.0
1979-08-02 23:50:16.320 ,3,0,0.,12.0,0.,12.0,0.,12.0,0.,12.0
1979-08-02 23:50:28.320 ,4,0,0.,12.0,0.,12.0,0.,12.0,0.,12.0
1979-08-02 23:50:40.320 ,4,0,0.,12.0,0.,12.0,0.,12.0,0.,12.0
1979-08-02 23:50:52.320 ,4,0,0.,12.0,0.,12.0,0.,12.0,0.,12.0
1979-08-02 23:51:04.320 ,4,0,0.,12.0,0.,12.0,0.,12.0,0.,12.0
1979-08-02 23:51:16.320 ,5,0,0.,12.0,0.,12.0,0.,12.0,0.,12.0
1979-08-02 23:51:28.320 ,5,0,0.,12.0,0.,12.0,0.,12.0,0.,12.0
1979-08-02 23:51:40.320 ,5,0,0.,12.0,0.,12.0,0.,12.0,0.,12.0
1979-08-02 23:51:52.320 ,5,0,0.,12.0,0.,12.0,0.,12.0,0.,12.0
1979-08-02 23:52:04.320 ,6,0,0.,12.0,0.,12.0,0.,12.0,0.,12.0
1979-08-02 23:52:16.320 ,6,0,0.,12.0,0.,12.0,0.,12.0,0.,12.0
1979-08-02 23:52:28.320 ,6,0,0.,12.0,0.,12.0,0.,12.0,0.,12.0
1979-08-02 23:52:40.320 ,6,0,0.,12.0,0.,12.0,0.,12.0,0.,12.0
1979-08-02 23:52:52.320 ,7,0,0.,12.0,0.,12.0,0.,12.0,0.,12.0
1979-08-02 23:53:04.320 ,7,0,0.,12.0,0.,12.0,0.,12.0,0.,12.0
1979-08-02 23:53:16.320 ,7,0,0.,12.0,0.,12.0,0.,12.0,0.,12.0
1979-08-02 23:53:28.320 ,7,0,0.,12.0,0.,12.0,0.,12.0,0.,12.0
1979-08-02 23:53:40.320 ,7,0,0.,12.0,0.,12.0,0.,12.0,0.,12.0
1979-08-02 23:53:52.320 ,7,0,0.,12.0,0.,12.0,0.,12.0,0.,12.0
1979-08-02 23:54:04.320 ,7,0,0.,12.0,0.,12.0,0.,12.0,0.,12.0
1979-08-02 23:54:16.320 ,7,0,0.,12.0,0.,12.0,0.,12.0,0.,12.0
1979-08-02 23:54:28.320 ,6,0,0.,12.0,0.,12.0,0.,12.0,0.,12.0
1979-08-02 23:54:40.320 ,6,0,0.,12.0,0.,12.0,0.,12.0,0.,12.0
1979-08-02 23:54:52.320 ,6,0,0.,12.0,0.,12.0,0.,12.0,0.,12.0
1979-08-02 23:55:04.320 ,6,0,0.,12.0,0.,12.0,0.,12.0,0.,12.0
1979-08-02 23:55:16.320 ,5,0,0.,12.0,0.,12.0,0.,12.0,0.,12.0
1979-08-02 23:55:28.320 ,5,0,0.,12.0,0.,12.0,0.,12.0,0.,12.0
1979-08-02 23:55:40.320 ,5,0,0.,12.0,0.,12.0,0.,12.0,0.,12.0
1979-08-02 23:55:52.320 ,5,0,0.,12.0,0.,12.0,0.,12.0,0.,12.0
1979-08-02 23:56:04.320 ,4,0,0.,12.0,0.,12.0,0.,12.0,0.,12.0
1979-08-02 23:56:16.320 ,4,0,0.,12.0,0.,12.0,0.,12.0,0.,12.0
1979-08-02 23:56:28.320 ,4,0,0.,12.0,0.,12.0,0.,12.0,0.,12.0
1979-08-02 23:56:40.320 ,4,0,0.,12.0,0.,12.0,0.,12.0,0.,12.0
1979-08-02 23:56:52.320 ,3,0,0.,12.0,0.,12.0,0.,12.0,0.,12.0
1979-08-02 23:57:04.320 ,3,0,0.,12.0,0.,12.0,0.,12.0,0.,12.0
1979-08-02 23:57:16.320 ,3,0,0.,12.0,0.,12.0,0.,12.0,0.,12.0
1979-08-02 23:57:28.320 ,3,0,0.,12.0,0.,12.0,0.,12.0,0.,12.0
1979-08-02 23:57:40.320 ,2,0,0.,12.0,0.,12.0,0.,12.0,0.,12.0
1979-08-02 23:57:52.320 ,2,0,0.,12.0,0.,12.0,0.,12.0,0.,12.0
1979-08-02 23:58:04.320 ,2,0,0.,12.0,0.,12.0,0.,12.0,0.,12.0
1979-08-02 23:58:16.320 ,2,0,0.,12.0,0.,12.0,0.,12.0,0.,12.0
1979-08-02 23:58:28.320 ,1,0,0.,12.0,0.,12.0,0.,12.0,0.,12.0
1979-08-02 23:58:40.320 ,1,0,0.,12.0,0.,12.0,0.,12.0,0.,12.0
1979-08-02 23:58:52.320 ,1,0,0.,12.0,0.,12.0,0.,12.0,0.,12.0
1979-08-02 23:59:04.320 ,1,0,0.,12.0,0.,12.0,0.,12.0,0.,12.0
1979-08-02 23:59:16.320 ,0,0,0.,12.0,0.,12.0,0.,12.0,0.,12.0
1979-08-02 23:59:28.320 ,0,0,0.,12.0,0.,12.0,0.,12.0,0.,12.0
1979-08-02 23:59:40.320 ,0,0,0.,12.0,0.,12.0,0.,12.0,0.,12.0
1979-08-02 23:59:52.320 ,0,0,0.,12.0,0.,12.0,0.,12.0,0.,12.0
1979-08-03 00:00:04.320 ,0,0,0.,12.0,0.,12.0,0.,12.0,0.,12.0
1979-08-03 00:00:16.320 ,0,0,0.,12.0,0.,12.0,0.,12.0,0.,12.0
